When you browse on this site, cookies collect data to enhance your experience and personalize the content and advertising you see.
Visit our Privacy Policy to learn more. By continuing to use the site, you agree to this use of cookies and data.
  • In Hungary
  • List of Countries
  • For 7 days
  • Water Temperature
  • Satellite Maps
  • Weather Map
  • News
  • Weather Widgets
  • user-avatar
    Login

    Hourly Weather Birkenhead

    Today, 16 December, Sunday

    Time Temperature Precipitation Wind Pressure Humidity
    00:00 +4°C° 0 mm 11 mps 744 mmHg 77%
    01:00 +5°C° 0.1 mm 10 mps 745 mmHg 78%
    02:00 +5°C° 0.1 mm 9 mps 746 mmHg 79%
    03:00 +4°C° 0.1 mm 8 mps 747 mmHg 80%
    04:00 +4°C° 0 mm 7 mps 748 mmHg 82%
    05:00 +4°C° 0 mm 7 mps 749 mmHg 83%
    06:00 +3°C° 0 mm 6 mps 749 mmHg 84%
    07:00 +3°C° 0 mm 5 mps 750 mmHg 86%
    08:00 +3°C° 0 mm 5 mps 750 mmHg 87%
    09:00 +4°C° 0 mm 4 mps 750 mmHg 88%
    10:00 +4°C° 0 mm 4 mps 750 mmHg 86%
    11:00 +5°C° 0 mm 4 mps 750 mmHg 84%
    12:00 +6°C° 0 mm 4 mps 751 mmHg 82%
    13:00 +6°C° 0.2 mm 4 mps 751 mmHg 84%
    14:00 +6°C° 0.2 mm 4 mps 751 mmHg 86%
    15:00 +6°C° 0.2 mm 4 mps 751 mmHg 88%
    16:00 +6°C° 0.3 mm 4 mps 751 mmHg 89%
    17:00 +5°C° 0.3 mm 4 mps 751 mmHg 90%
    18:00 +5°C° 0.3 mm 4 mps 751 mmHg 92%
    19:00 +5°C° 0.1 mm 4 mps 752 mmHg 92%
    20:00 +5°C° 0.1 mm 4 mps 752 mmHg 92%
    21:00 +4°C° 0.1 mm 4 mps 753 mmHg 92%
    22:00 +4°C° 0 mm 4 mps 754 mmHg 91%
    23:00 +4°C° 0 mm 4 mps 754 mmHg 91%

    Tomorrow, 17 December, Monday

    Time Temperature Precipitation Wind Pressure Humidity
    00:00 +4°C° 0 mm 4 mps 755 mmHg 90%
    01:00 +4°C° 0 mm 4 mps 755 mmHg 90%
    02:00 +4°C° 0 mm 4 mps 756 mmHg 89%
    03:00 +4°C° 0 mm 4 mps 756 mmHg 89%
    04:00 +4°C° 0 mm 4 mps 756 mmHg 89%
    05:00 +4°C° 0 mm 4 mps 757 mmHg 89%
    06:00 +3°C° 0 mm 4 mps 757 mmHg 89%
    07:00 +3°C° 0 mm 4 mps 758 mmHg 89%
    08:00 +3°C° 0 mm 4 mps 758 mmHg 90%
    09:00 +3°C° 0 mm 4 mps 759 mmHg 90%
    10:00 +4°C° 0 mm 4 mps 758 mmHg 88%
    11:00 +5°C° 0 mm 5 mps 758 mmHg 85%
    12:00 +6°C° 0 mm 5 mps 758 mmHg 83%
    13:00 +5°C° 0 mm 6 mps 758 mmHg 84%
    14:00 +7°C° 0 mm 6 mps 758 mmHg 85%
    15:00 +7°C° 0 mm 6 mps 758 mmHg 86%
    16:00 +6°C° 0.1 mm 7 mps 757 mmHg 87%
    17:00 +6°C° 0.1 mm 7 mps 757 mmHg 88%
    18:00 +6°C° 0.1 mm 7 mps 757 mmHg 90%
    19:00 +8°C° 0.1 mm 7 mps 757 mmHg 89%
    20:00 +7°C° 0.1 mm 8 mps 757 mmHg 89%
    21:00 +9°C° 0.1 mm 8 mps 756 mmHg 88%
    22:00 +9°C° 0 mm 8 mps 756 mmHg 88%
    23:00 +9°C° 0 mm 8 mps 756 mmHg 87%

    Day after tomorrow, 18 December, Tuesday

    Time Temperature Precipitation Wind Pressure Humidity
    00:00 +9°C° 0 mm 8 mps 756 mmHg 87%
    01:00 +9°C° 0 mm 8 mps 755 mmHg 86%
    02:00 +9°C° 0 mm 8 mps 754 mmHg 84%
    03:00 +8°C° 0 mm 9 mps 754 mmHg 83%
    04:00 +8°C° 0 mm 9 mps 753 mmHg 83%
    05:00 +8°C° 0 mm 10 mps 752 mmHg 83%
    06:00 +8°C° 0 mm 10 mps 751 mmHg 82%
    07:00 +8°C° 0.1 mm 11 mps 751 mmHg 81%
    08:00 +8°C° 0.1 mm 11 mps 750 mmHg 81%
    09:00 +8°C° 0.1 mm 12 mps 750 mmHg 80%
    10:00 +8°C° 0.4 mm 12 mps 749 mmHg 79%
    11:00 +8°C° 0.4 mm 12 mps 748 mmHg 78%
    12:00 +7°C° 0.4 mm 12 mps 748 mmHg 77%
    13:00 +7°C° 0.7 mm 11 mps 747 mmHg 79%
    14:00 +7°C° 0.7 mm 10 mps 747 mmHg 81%
    15:00 +7°C° 0.7 mm 10 mps 747 mmHg 83%
    16:00 +7°C° 1.3 mm 9 mps 746 mmHg 84%
    17:00 +8°C° 1.3 mm 7 mps 746 mmHg 85%
    18:00 +7°C° 1.3 mm 6 mps 746 mmHg 87%
    19:00 +7°C° 0.8 mm 6 mps 747 mmHg 87%
    20:00 +7°C° 0.8 mm 5 mps 747 mmHg 88%
    21:00 +6°C° 0.8 mm 4 mps 747 mmHg 89%
    22:00 +6°C° 0.1 mm 4 mps 748 mmHg 89%
    23:00 +6°C° 0.1 mm 4 mps 748 mmHg 88%

    19 December, Wednesday

    Time Temperature Precipitation Wind Pressure Humidity
    00:00 +6°C° 0.1 mm 4 mps 749 mmHg 88%
    01:00 +6°C° 0.1 mm 4 mps 749 mmHg 89%
    02:00 +5°C° 0.1 mm 4 mps 750 mmHg 89%
    03:00 +5°C° 0.1 mm 4 mps 750 mmHg 90%
    04:00 +5°C° 0 mm 4 mps 751 mmHg 89%
    05:00 +5°C° 0 mm 4 mps 751 mmHg 89%
    06:00 +4°C° 0 mm 4 mps 752 mmHg 88%
    07:00 +4°C° 0 mm 4 mps 752 mmHg 88%
    08:00 +4°C° 0 mm 4 mps 753 mmHg 87%
    09:00 +4°C° 0 mm 4 mps 753 mmHg 86%
    10:00 +5°C° 0 mm 5 mps 753 mmHg 83%
    11:00 +6°C° 0 mm 5 mps 753 mmHg 80%
    12:00 +6°C° 0 mm 5 mps 754 mmHg 77%
    13:00 +6°C° 0.1 mm 5 mps 754 mmHg 77%
    14:00 +6°C° 0.1 mm 5 mps 753 mmHg 78%
    15:00 +6°C° 0.1 mm 5 mps 753 mmHg 79%
    16:00 +5°C° 0.2 mm 6 mps 754 mmHg 80%
    17:00 +4°C° 0.2 mm 6 mps 754 mmHg 81%
    18:00 +4°C° 0.2 mm 6 mps 754 mmHg 82%
    19:00 +4°C° 0.2 mm 6 mps 754 mmHg 83%
    20:00 +4°C° 0.2 mm 6 mps 754 mmHg 83%
    21:00 +4°C° 0.2 mm 6 mps 754 mmHg 84%
    22:00 +4°C° 0.1 mm 6 mps 754 mmHg 84%
    23:00 +4°C° 0.1 mm 6 mps 754 mmHg 84%

    20 December, Thursday

    Time Temperature Precipitation Wind Pressure Humidity
    00:00 +4°C° 0.1 mm 6 mps 754 mmHg 85%
    01:00 +4°C° 0.2 mm 6 mps 754 mmHg 85%
    02:00 +4°C° 0.2 mm 6 mps 754 mmHg 85%
    03:00 +4°C° 0.2 mm 6 mps 754 mmHg 85%
    04:00 +4°C° 0.3 mm 6 mps 754 mmHg 85%
    05:00 +4°C° 0.3 mm 6 mps 754 mmHg 84%
    06:00 +4°C° 0.3 mm 6 mps 754 mmHg 84%
    07:00 +4°C° 0.2 mm 6 mps 754 mmHg 85%
    08:00 +5°C° 0.2 mm 5 mps 755 mmHg 85%
    09:00 +5°C° 0.2 mm 5 mps 755 mmHg 86%
    10:00 +5°C° 0.1 mm 5 mps 755 mmHg 83%
    11:00 +5°C° 0.1 mm 6 mps 756 mmHg 81%
    12:00 +7°C° 0.1 mm 6 mps 756 mmHg 78%
    13:00 +7°C° 0 mm 5 mps 756 mmHg 79%
    14:00 +6°C° 0 mm 5 mps 756 mmHg 80%
    15:00 +6°C° 0 mm 5 mps 756 mmHg 80%
    16:00 +6°C° 0 mm 4 mps 756 mmHg 82%
    17:00 +5°C° 0 mm 4 mps 756 mmHg 84%
    18:00 +4°C° 0 mm 4 mps 757 mmHg 86%
    19:00 +4°C° 0 mm 4 mps 756 mmHg 87%
    20:00 +5°C° 0 mm 4 mps 756 mmHg 87%
    21:00 +5°C° 0 mm 4 mps 756 mmHg 87%
    22:00 +5°C° 0 mm 5 mps 755 mmHg 89%
    23:00 +6°C° 0 mm 5 mps 754 mmHg 91%

    21 December, Friday

    Time Temperature Precipitation Wind Pressure Humidity
    00:00 +5°C° 0 mm 6 mps 753 mmHg 94%
    01:00 +6°C° 0.3 mm 7 mps 752 mmHg 93%
    02:00 +8°C° 0.3 mm 7 mps 750 mmHg 93%
    03:00 +9°C° 0.3 mm 8 mps 749 mmHg 92%
    04:00 +9°C° 0.9 mm 8 mps 748 mmHg 93%
    05:00 +9°C° 0.9 mm 7 mps 747 mmHg 93%
    06:00 +10°C° 0.9 mm 7 mps 746 mmHg 93%
    07:00 +10°C° 2 mm 8 mps 746 mmHg 89%
    08:00 +8°C° 2 mm 9 mps 746 mmHg 85%
    09:00 +8°C° 2 mm 10 mps 747 mmHg 82%
    10:00 +8°C° 0 mm 9 mps 748 mmHg 80%
    11:00 +8°C° 0 mm 9 mps 749 mmHg 78%
    12:00 +9°C° 0 mm 8 mps 750 mmHg 77%
    13:00 +9°C° 0.1 mm 8 mps 750 mmHg 78%
    14:00 +9°C° 0.1 mm 7 mps 750 mmHg 80%
    15:00 +9°C° 0.1 mm 7 mps 750 mmHg 81%
    16:00 +9°C° 0.6 mm 7 mps 750 mmHg 84%
    17:00 +9°C° 0.6 mm 6 mps 750 mmHg 87%
    18:00 +8°C° 0.6 mm 6 mps 751 mmHg 89%
    19:00 +8°C° 0.3 mm 6 mps 751 mmHg 87%
    20:00 +8°C° 0.3 mm 7 mps 751 mmHg 84%
    21:00 +8°C° 0.3 mm 7 mps 752 mmHg 82%
    22:00 +8°C° 0.2 mm 7 mps 752 mmHg 83%
    23:00 +8°C° 0.2 mm 7 mps 752 mmHg 83%
    Show more